Location: Bosdarros
(43.2167°N, 0.3667°W)
Time: 07:40:23
(UTC+00:00)

USA 186 - Pass Details

Date: 22 April 2021
Orbit: 262 x 462 km, 96.9° (Epoch: 06 May)

Event Time Altitude Azimuth Distance (km) Brightness Sun altitude
Exits shadow 19:46:56 -1° 175° (S) 2,480 5.3 -9.9°
Rises 19:47:04 0° 175° (S) 2,421 5.3 -9.9°
Reaches altitude 10° 19:49:09 10° 180° (S) 1,531 4.3 -10.3°
Maximum altitude 19:52:24 57° 260° (W) 497 2.4 -10.8°
Drops below altitude 10° 19:55:27 10° 340° (NNW) 1,446 5.2 -11.3°
Sets 19:57:23 0° 345° (NNW) 2,271 6.2 -11.6°
